User: anonymous   Login
Location: Anglesey
(53.1800°N, 4.2200°W)
Time: 06:25:04
(UTC+00:00)
Language:

Hubble Space Telescope - Orbit

View from above orbital plane
View from above orbital plane
View from above satellite
View from above satellite

Ground track
Ground track

The orbit data is extracted from the following two-line orbital elements,

1 20580U 90037B   17345.52753472 +.00000515 +00000-0 +20639-4 0  9994
2 20580 028.4698 275.5528 0002471 281.0428 049.3260 15.08942017317009
Epoch (UTC): 11 December 2017 12:39:39
Eccentricity: 0.0002471
inclination: 28.4698°
perigee height: 538 km
apogee height: 541 km
right ascension of ascending node: 275.5528°
argument of perigee: 281.0428°
revolutions per day: 15.08942017
mean anomaly at epoch: 49.3260°
orbit number at epoch: 31700

The dashed part of the orbit path shows where the satellite is in the earth's shadow,  

DLR